Location: Brede
(50.9167°N, 0.6000°E)
Time: 19:21:46
(UTC+00:00)

Cosmos 2034 Rocket - Pass Details

Date: 08 August 2020
Orbit: 958 x 1001 km, 82.9° (Epoch: 24 September)

Event Time Altitude Azimuth Distance (km) Brightness Sun altitude
Exits shadow 01:02:18 42° 201° (SSW) 1,367 4.3 -21.8°
Maximum altitude 01:04:35 79° 280° (W) 1,007 4.0 -21.7°
Drops below altitude 10° 01:10:56 10° 8° (N) 2,764 7.5 -21.4°
Sets 01:13:30 0° 10° (N) 3,722 8.5 -21.3°
